Flag for Netherlands Weather past 2 weeks in Arnhem, Netherlands

Now
61 °F

Overcast.


Feels Like: 61 °F
Forecast: 47 / 64 °F
Wind: 8 mph from Southwest

Location: Deelen

Current Time: Aug 23, 2014 at 1:35:16 PM

Latest Report: Aug 23, 2014 at 12:55 PM


Visibility: N/A

Pressure: 29.89 "Hg

Humidity: 63%

Dew point: 48 °F

Location of ArnhemLocation

Historic Weather in Arnhem — Graph

°F

Arnhem temperature yesterday

Maximum temperature yesterday: 63 °F (at 11:55 AM)
Minimum temperature yesterday: 52 °F (at 12:25 AM)
Average temperature yesterday: 55 °F

Past Weeks' High & Low Weather Summary

 TemperatureHumidityPressure
High77 °F (Aug 8, 2:55 PM)100% (Aug 8, 7:25 PM)30.09 "Hg (Aug 8, 7:25 PM)
Low45 °F (Aug 21, 5:55 AM)49% (Aug 11, 1:55 PM)29.50 "Hg (Aug 10, 6:25 PM)
Average59 °F84%29.82 "Hg
* Reported Aug 8 12:25 PM — Aug 23 12:25 PM, Arnhem, Weather by CustomWeather, © 2014

Note: Actual official high and low records may vary slightly from our data, if they occured in-between our weather recording intervals... More about our weather records

Advertising

Arnhem weather history for previous 24 hours

 ConditionsComfort  
Time TempWeatherWind HumidityBarometerVisibility
12:25 PM
Aug 23
59 °FScattered clouds.15 mph72%29.92 "HgN/A
11:55 AM57 °FPartly sunny.7 mph72%29.89 "HgN/A
11:25 AM55 °FDrizzle. Partly sunny.7 mph82%29.92 "HgN/A
10:55 AM55 °FThunderstorms. Broken clouds.10 mph82%29.89 "HgN/A
10:25 AM55 °FFog.7 mph94%29.89 "Hg4 mi
9:55 AM54 °FFog.6 mph100%29.89 "Hg2 mi
9:25 AM52 °FFog.5 mph100%29.89 "Hg1 mi
8:55 AM52 °FFog.3 mph100%29.89 "Hg2 mi
8:25 AM50 °FFog.2 mph100%29.89 "Hg2 mi
7:55 AM50 °FFog.2 mph100%29.86 "Hg2 mi
7:25 AM48 °FFog.2 mph100%29.86 "Hg1 mi
6:55 AM46 °FFog.2 mph100%29.86 "Hg1 mi
6:25 AM48 °FFog.1 mph100%29.86 "Hg2 mi
5:55 AM46 °FFog.2 mph100%29.86 "Hg1 mi
5:25 AM46 °FFog.1 mph100%29.86 "Hg2 mi
4:55 AM46 °FFog.1 mph93%29.86 "Hg1 mi
4:25 AM46 °FFog.2 mph100%29.86 "Hg2 mi
3:55 AM46 °FFog.2 mph100%29.86 "Hg2 mi
3:25 AM48 °FFog.5 mph100%29.86 "Hg2 mi
2:55 AM48 °FFog.5 mph100%29.86 "Hg2 mi
2:25 AM50 °FFog.5 mph94%29.89 "Hg2 mi
1:55 AM48 °FFog.3 mph100%29.86 "Hg2 mi
1:25 AM50 °FFog.5 mph100%29.89 "Hg4 mi
12:55 AM50 °FFog.5 mph100%29.86 "Hg4 mi
12:25 AM50 °FFog.6 mph100%29.86 "Hg3 mi
11:55 PM
Aug 22
52 °FFog.6 mph100%29.86 "Hg5 mi
11:25 PM52 °FFog.6 mph100%29.86 "Hg6 mi
10:55 PM54 °FMostly cloudy.5 mph100%29.86 "HgN/A
10:25 PM54 °FFog.6 mph94%29.86 "Hg6 mi
9:55 PM52 °FFog.6 mph100%29.86 "Hg6 mi
9:25 PM52 °FMostly cloudy.2 mph100%29.86 "HgN/A
8:55 PM52 °FFog.3 mph100%29.86 "Hg4 mi
8:25 PM54 °FPassing clouds.2 mph94%29.83 "HgN/A
7:55 PM54 °FPassing clouds.5 mph94%29.83 "HgN/A
7:25 PM54 °FPartly sunny.7 mph94%29.83 "HgN/A
6:55 PM54 °FThunderstorms. Scattered clouds.9 mph94%29.83 "HgN/A
6:25 PM52 °FSprinkles. Broken clouds.8 mph94%29.83 "HgN/A
5:55 PM52 °FStrong thunderstorms. Broken clouds.15 mph82%29.83 "HgN/A
5:25 PM59 °FThunderstorms. Mostly cloudy.15 mph82%29.83 "HgN/A
4:55 PM59 °FPartly sunny.9 mph82%29.80 "HgN/A
4:25 PM59 °FMostly cloudy.16 mph82%29.83 "HgN/A
3:55 PM59 °FDrizzle. Broken clouds.14 mph82%29.80 "HgN/A
3:25 PM61 °FBroken clouds.16 mph72%29.80 "HgN/A
2:55 PM61 °FBroken clouds.12 mph77%29.83 "HgN/A
2:25 PM61 °FLight rain. Broken clouds.10 mph77%29.83 "HgN/A
1:55 PM59 °FPartly sunny.8 mph82%29.83 "HgN/A
1:25 PM59 °FLight rain. Broken clouds.18 mph77%29.83 "HgN/A
Weather by CustomWeather, © 2014

See weather overviewHow to use our weather pages